Location: DaVinci Observatory
(43.1080°N, 78.6453°W)
Time: 04:31:36
(UTC-04:00)

Vanguard 3 - Visible Passes

Search period start: 21 October 2017 00:00
Search period end: 31 October 2017 00:00
Orbit: 510 x 3263 km, 33.3° (Epoch: 20 October)

Date Brightness Start Highest point End Pass type
(mag) Time Alt. Az. Time Alt. Az. Time Alt. Az.
21 Oct 10.8 02:42:14 18° SE 02:42:14 18° SE 02:47:15 10° ESE visible
21 Oct 9.8 04:46:50 26° SSW 04:52:46 36° SSE 05:01:11 10° ESE visible
21 Oct 9.1 06:54:30 10° WSW 07:05:39 44° S 07:12:07 10° ESE visible
22 Oct 10.2 03:37:23 30° SSE 03:37:55 30° SSE 03:47:25 10° E visible
22 Oct 9.4 05:41:59 19° SW 05:51:27 45° S 05:59:19 10° ESE visible
23 Oct 10.7 02:27:52 20° SE 02:27:52 20° SE 02:32:40 10° ESE visible
23 Oct 9.7 04:32:27 35° SSW 04:36:46 41° SSE 04:46:05 10° E visible
23 Oct 9.1 06:37:34 10° WSW 06:49:56 47° S 06:57:01 10° ESE visible
24 Oct 10.1 03:22:53 35° SSE 03:22:53 35° SSE 03:32:20 10° E visible
24 Oct 9.4 05:27:28 26° SW 05:35:32 49° S 05:44:10 10° ESE visible
25 Oct 10.7 02:13:16 21° ESE 02:13:16 21° ESE 02:17:41 10° E visible
25 Oct 9.7 04:17:51 43° SSW 04:20:38 46° SSE 04:30:53 10° E visible
25 Oct 9.2 06:22:26 14° WSW 06:34:06 50° S 06:41:52 10° ESE visible
26 Oct 10.1 03:08:11 38° SE 03:08:11 38° SE 03:17:03 10° E visible
26 Oct 9.4 05:12:46 34° SW 05:19:31 52° S 05:28:56 10° ESE visible
27 Oct 10.8 01:58:30 20° ESE 01:58:30 20° ESE 02:02:26 10° E visible
27 Oct 9.7 04:03:04 49° S 04:04:23 50° SSE 04:15:33 10° E visible
27 Oct 9.3 06:07:38 20° WSW 06:18:10 52° S 06:26:39 10° ESE visible
28 Oct 10.2 02:53:21 38° SE 02:53:21 38° SE 03:01:37 10° E visible
28 Oct 9.5 04:57:55 41° SW 05:03:22 55° S 05:13:37 10° ESE visible
28 Oct 9.4 07:03:42 10° W 07:16:24 42° SSW 07:23:55 10° SE visible
29 Oct 10.9 01:43:36 19° ESE 01:43:36 19° ESE 01:46:57 10° E visible
29 Oct 9.7 03:48:10 54° SSE 03:48:10 54° SSE 04:00:07 10° E visible
29 Oct 9.4 05:52:45 25° WSW 06:02:06 53° SSW 06:11:20 10° ESE visible
30 Oct 10.3 02:38:25 37° ESE 02:38:25 37° ESE 02:46:03 10° E visible
30 Oct 9.5 04:43:00 48° SW 04:47:06 57° S 04:58:13 10° ESE visible
30 Oct 9.5 06:47:33 12° W 07:00:23 42° SSW 07:08:32 10° SE visible
